User: anonymous   Login
Location: Iesi
(43.5167°N, 13.2333°E)
Time: 02:07:45
(UTC+00:00)
Language:

Cosmos 2242 Rocket - Orbit

View from above orbital plane
View from above orbital plane
View from above satellite
View from above satellite

Ground track
Ground track

The orbit data is extracted from the following two-line orbital elements,

1 22627U 93024B   20302.80056585  .00000065  00000-0  57871-5 0  9995
2 22627  82.5257  38.1956 0021972 270.2180  89.6514 14.78183631483788
Epoch (UTC): 28 October 2020 19:12:48
Eccentricity: 0.0021972
inclination: 82.5257°
perigee height: 619 km
apogee height: 650 km
right ascension of ascending node: 38.1956°
argument of perigee: 270.2180°
revolutions per day: 14.78183631
mean anomaly at epoch: 89.6514°
orbit number at epoch: 48378

The dashed part of the orbit path shows where the satellite is in the earth's shadow,  

DLR